Location: Fairmont
(43.6520°N, 94.4610°W)
Time: 19:56:57
(UTC-05:00)

Daily predictions for brighter satellites

Satellite Brightness Start Highest point End
(mag) Time Altitude Azimuth Time Altitude Azimuth Time Altitude Azimuth
Cosmos 1943 Rocket 3.9 20:26:58 10° SW 20:32:11 38° WNW 20:37:28 10° NNE
Meteor 1-5 Rocket 4.4 20:28:22 10° SSE 20:33:23 44° E 20:38:33 10° NNE
ALOS 2.3 20:29:26 10° SSE 20:34:03 67° ENE 20:38:43 10° N
FENGYUN 3A 3.7 20:29:31 10° SSE 20:34:49 67° ENE 20:40:09 10° N
Helios 1B rocket 3.4 20:32:51 10° N 20:36:54 55° WNW 20:40:55 10° SSW
Cosmos 2082 4.3 20:33:19 10° NNW 20:38:38 41° ENE 20:43:56 10° SE
Cosmos 1777 Rocket 4.0 20:33:34 10° NNW 20:38:51 79° ENE 20:44:07 10° SSE
Cosmos 2297 Rocket 3.0 20:36:37 10° N 20:41:47 35° NE 20:46:56 10° ESE
Meteor 2-21 Rocket 4.5 20:35:46 10° S 20:41:55 71° E 20:48:05 10° NNE
Cosmos 2123 Rocket 4.1 20:37:40 10° N 20:43:46 56° ENE 20:49:48 10° SSE
Lacrosse 5 3.4 20:42:18 10° NW 20:46:34 26° NNE 20:50:47 10° E
Meteor 1-11 Rocket 4.5 20:43:55 10° SSW 20:49:24 58° WNW 20:54:52 10° N
USA 215 4.4 20:43:45 10° ENE 20:49:27 33° NNE 20:55:10 10° NW
Cosmos 2208 Rocket 4.2 20:46:02 10° S 20:51:09 52° ESE 20:56:22 10° NNE
H-2A R/B 3.6 20:49:23 10° ESE 20:52:06 18° ENE 20:54:55 10° NNE
Cosmos 1892 Rocket 3.6 20:47:55 10° N 20:52:25 88° W 20:56:55 10° S
Okean 2 3.4 20:50:00 10° N 20:54:11 84° ENE 20:58:21 10° S
Cosmos 1626 Rocket 4.3 20:50:17 10° N 20:54:20 34° ENE 20:58:20 10° SE
Meteor 2-15 4.4 20:49:35 10° N 20:55:41 83° E 21:01:44 10° S
SPOT 5 4.4 20:52:32 11° ESE 20:56:02 21° ENE 20:59:39 10° NNE
Cosmos 1025 Rocket 4.1 20:53:26 10° NNW 20:57:39 47° W 21:01:49 10° SSW
BREEZE-M DEB (TANK) 4.4 20:55:44 10° SSW 20:59:47 53° SE 21:13:39 10° ENE
Cosmos 1455 Rocket 3.0 20:55:36 10° S 20:59:52 68° E 21:04:13 10° NNE
Meteor 2-15 Rocket 4.4 20:54:26 10° N 21:00:33 77° E 21:06:37 10° SSE
Cosmos 1975 3.6 20:57:15 10° SSE 21:00:55 32° E 21:04:36 10° NNE
Meteor 2-14 Rocket 4.5 20:54:52 10° S 21:01:01 86° E 21:07:13 10° N
Cosmos 1602 Rocket 4.1 20:58:04 10° N 21:02:20 42° ENE 21:06:23 11° SSE
NOSS 3-4 (A) 3.9 20:56:13 10° NW 21:03:15 89° WSW 21:10:42 10° SSE
NOSS 3-4 (C) 3.9 20:56:20 10° NW 21:03:22 89° WSW 21:10:49 10° SE
EO 1 Delta rocket 3.8 20:59:46 10° NNE 21:04:25 81° E 21:09:32 10° S
Cosmos 1570 Rocket 4.0 21:04:19 10° SSW 21:09:36 81° ESE 21:14:54 10° NNE
Cosmos 1461 2.8 21:06:39 10° NNW 21:10:46 73° NE 21:13:43 17° SE
Resurs 01 Rocket 4.1 21:07:30 10° SSW 21:11:01 23° W 21:14:34 10° NW
Lacrosse 5 rocket 1.5 21:07:23 10° NW 21:11:04 50° NE 21:13:22 20° ESE
YAOGAN 6 4.4 21:12:12 15° E 21:13:15 16° ENE 21:15:36 10° NNE
Tiangong 1 1.0 21:11:56 10° WSW 21:15:01 68° S 21:16:48 22° E
Envisat 3.4 21:11:14 14° SE 21:15:24 47° ENE 21:20:16 10° N
CZ-4 DEB 2.6 21:14:52 15° SSE 21:17:19 69° ENE 21:20:27 10° N
Cosmos 1934 Rocket 4.2 21:12:46 10° SSW 21:18:52 73° W 21:25:07 10° N
Meteor 1-12 Rocket 4.3 21:14:11 10° S 21:19:48 64° E 21:25:35 10° NNE
USA 186 3.0 21:17:26 10° S 21:20:24 39° W 21:23:13 10° NNW
Cosmos 2278 3.6 21:17:04 10° SSW 21:22:43 80° ESE 21:28:27 10° NNE
Cosmos 1697 Rocket 3.4 21:18:13 10° SSE 21:23:03 30° ESE 21:27:55 10° NE
OTV 4 1.8 21:20:42 10° WSW 21:23:11 24° S 21:23:53 22° SSE
H-2A R/B 4.3 21:22:13 10° SSW 21:25:49 37° W 21:29:29 10° NNW
DELTA 2 R/B (1) 3.8 21:20:56 10° W 21:26:23 56° S 21:29:48 22° ESE
EP 1 4.0 21:24:51 10° SW 21:27:20 84° SE 21:29:59 10° NE
Cosmos 1939 Rocket 2.9 21:28:30 19° SSE 21:31:24 71° ENE 21:35:33 10° N
Cosmos 2084 4.0 21:27:43 10° NNW 21:31:32 40° NE 21:33:22 26° E
ASTEX 1 4.4 21:27:23 10° NNE 21:31:40 28° E 21:33:03 24° ESE
ATLAS CENTAUR R/B 4.5 21:28:24 10° W 21:32:16 22° NW 21:36:04 10° N
Cosmos 220 Rocket 3.9 21:29:01 10° NNW 21:33:15 73° ENE 21:35:36 25° SSE
Iridium 4 Rocket 3.3 21:29:32 10° N 21:34:50 84° E 21:39:24 11° S
Cosmos 2369 3.7 21:29:59 10° SSW 21:35:39 89° SE 21:41:24 10° NNE
SJ-11-01 4.5 21:36:23 11° S 21:40:48 71° WSW 21:45:30 10° NNW
Terra 3.9 21:40:15 12° ENE 21:41:05 12° ENE 21:42:55 10° NE
OAO 2 Rocket 4.4 21:37:54 10° SW 21:42:07 27° SSE 21:42:57 25° SSE
NOSS 7 (H) 4.2 21:41:25 10° SW 21:44:40 86° ESE 21:48:07 10° NE
Cosmos 1980 Rocket 3.0 21:44:07 27° ESE 21:44:44 28° ESE 21:49:29 10° NE
Cosmos 2016 Rocket 4.5 21:43:28 25° SE 21:46:11 38° E 21:51:48 10° NNE
ARGOS 3.9 21:49:32 29° ESE 21:51:20 37° ENE 21:56:14 10° N
ERS-1 Rocket 3.4 21:47:32 13° S 21:51:58 62° WSW 21:56:58 10° NNW
Cosmos 1898 Rocket 3.5 21:47:00 10° NNW 21:52:21 76° ENE 21:54:53 31° SSE
SL-24 R/B - RUBIN 2 4.3 21:51:31 10° SSW 21:57:19 69° ESE 22:03:48 10° NE
RESURS DK-1 2.8 21:54:37 10° NNW 21:58:38 46° ENE 21:59:18 42° E
Cosmos 2173 Rocket 4.0 21:53:55 16° S 21:59:05 67° E 22:05:23 10° NNE
Cosmos 1726 Rocket 4.2 22:03:16 36° E 22:03:16 36° E 22:06:58 10° NNE
Cosmos 1763 Rocket 4.2 22:04:52 33° E 22:04:52 33° E 22:08:51 10° NE
Cosmos 2061 Rocket 3.9 22:00:39 17° S 22:05:44 74° E 22:11:59 10° NNE
SL-19 R/B 4.4 22:02:14 10° NNE 22:07:35 48° E 22:08:46 41° SE
Cosmos 2100 Rocket 3.9 22:02:00 12° S 22:07:53 84° E 22:14:10 10° N
Cosmos 2227 Rocket 3.5 22:04:50 10° NW 22:09:57 36° WSW 22:14:14 14° SSW
Cosmos 1500 3.8 22:09:17 22° SSW 22:11:31 55° W 22:15:15 10° N
MetOp-B 4.0 22:10:11 37° SSE 22:12:24 85° ENE 22:17:47 10° NNW
Cosmos 2263 Rocket 4.0 22:09:33 10° N 22:13:04 17° NE 22:14:41 15° ENE
Cosmos 1825 Rocket 3.4 22:10:07 10° N 22:14:34 82° E 22:15:24 58° SSE
Cosmos 468 Rocket 3.8 22:09:46 10° SSW 22:14:54 88° ESE 22:20:03 10° NNE
Cosmos 2322 Rocket 4.2 22:18:33 13° ENE 22:18:33 13° ENE 22:19:29 10° NE
USA 245 4.4 22:17:06 40° SSE 22:19:27 76° ENE 22:25:50 10° N
Cosmos 1814 Rocket 3.9 22:17:57 18° SSW 22:21:58 86° ESE 22:27:19 10° NNE
Milstar 3 Cent rocket 4.4 22:05:48 10° WSW 22:22:26 38° SSW 22:26:28 30° SSE
Cosmos 1953 Rocket 3.4 22:18:25 10° N 22:22:52 74° E 22:23:10 70° ESE
Cosmos 1656 4.0 22:18:08 10° SW 22:23:45 67° WNW 22:29:18 10° NNE
Cosmos 841 Rocket 3.9 22:24:40 43° E 22:24:40 43° E 22:28:59 10° NNE
Meteor 2-9 Rocket 4.4 22:24:45 47° E 22:24:54 47° E 22:30:07 10° NNE
Cosmos 2297 Rocket 3.3 22:20:40 10° NW 22:25:50 37° WSW 22:28:59 21° SSW
Cosmos 1340 2.7 22:22:52 10° N 22:26:23 75° NNW 22:26:23 75° NNW
Cosmos 2227 4.3 22:21:15 10° NNW 22:26:59 61° ENE 22:28:06 51° ESE
H-2A R/B 3.0 22:26:31 31° SW 22:27:49 41° W 22:31:45 10° NNW
Lacrosse 5 1.7 22:25:03 10° NW 22:30:09 86° NE 22:30:47 68° ESE
deb Chang Zheng 4 4.5 22:26:55 10° N 22:31:13 49° WNW 22:34:29 17° SW
USA 215 3.3 22:29:22 41° ESE 22:31:51 71° NE 22:38:22 10° NW
SPOT 5 3.6 22:31:47 33° SSW 22:33:46 52° W 22:38:34 10° NNW
BREEZE-M TANK 3.3 22:31:58 10° WNW 22:38:57 44° SW 22:38:57 44° SW
Cosmos 1743 3.7 22:41:34 42° WSW 22:42:05 45° WNW 22:45:53 10° N
Cosmos 1758 Rocket 3.5 22:37:46 10° N 22:41:58 78° WNW 22:41:58 78° WNW
Cosmos 1725 Rocket 3.9 22:42:15 57° SSE 22:43:27 72° E 22:49:40 10° NNE
YAOGAN 6 3.9 22:46:42 35° W 22:46:42 35° W 22:49:58 10° NNW
Lacrosse 5 rocket 3.4 22:47:21 10° W 22:49:06 17° WSW 22:49:06 17° WSW
H-2A R/B 2.1 22:50:51 61° NE 22:50:51 61° NE 22:55:28 10° N
Cosmos 2228 4.1 22:53:04 35° NNE 22:53:04 35° NNE 22:55:40 10° NNE
Tiangong 1 4.0 22:48:22 10° W 22:48:47 13° W 22:48:47 13° W
GEOS 3 Rocket 3.4 22:51:05 10° NE 22:56:08 84° E 22:56:08 84° E
Cosmos 2098 Rocket 4.1 22:55:16 42° SSW 22:57:55 82° W 23:04:02 10° N
Cosmos 1842 4.3 22:55:16 10° NNW 22:58:08 43° NW 22:58:08 43° NW
Cosmos 2058 Rocket 3.6 23:02:59 60° NW 23:02:59 60° NW 23:06:59 10° N
Landsat 7 4.0 23:03:17 70° NNW 23:03:17 70° NNW 23:07:32 10° NNW
CZ-4 R/B 4.1 23:01:43 10° NNE 23:05:47 65° N 23:05:47 65° N
Cosmos 1697 Rocket 3.8 23:01:29 10° SW 23:06:50 42° WNW 23:12:12 10° NNE
BREEZE-M DEB (TANK) 4.1 23:04:20 10° WNW 23:05:25 25° W 23:05:25 25° W
SPOT 1/Viking Rocket 4.3 23:08:45 41° WSW 23:09:26 43° W 23:14:26 10° NNW
SL-16 R/B 3.3 23:11:47 31° NE 23:11:47 31° NE 23:14:56 10° NE
Cosmos 2233 Rocket 3.9 23:12:31 74° E 23:12:31 74° E 23:18:37 10° NNE
Meteor 2-17 Rocket 4.3 23:15:56 80° ENE 23:15:56 80° ENE 23:21:51 10° N
Meteor 2-5 Rocket 4.1 23:11:38 10° N 23:16:58 56° NE 23:16:58 56° NE
Terra 2.4 23:19:09 56° NNW 23:19:09 56° NNW 23:22:54 10° NNW
Meteor 1-15 Rocket 4.4 23:18:10 64° WSW 23:18:48 70° WNW 23:24:42 10° N
CZ-4B R/B 4.2 23:19:10 10° N 23:23:40 44° WNW 23:23:57 43° W
Cosmos 1980 Rocket 3.1 23:25:46 27° WSW 23:28:28 46° WNW 23:33:58 10° NNE
Cosmos 2360 Rocket 4.3 23:32:37 15° NE 23:32:37 15° NE 23:33:50 10° NE
ARGOS 4.4 23:31:03 31° WSW 23:31:36 31° W 23:36:21 10° NNW
Cosmos 1125 Rocket 4.3 23:35:30 10° NNW 23:39:32 47° WNW 23:39:32 47° WNW
Meteor 1-24 Rocket 4.4 23:42:53 10° N 23:47:49 53° NNE 23:47:49 53° NNE
Cosmos 1464 Rocket 4.4 23:53:54 58° NE 23:53:54 58° NE 23:59:03 10° NNE
